Previsão horária em Kabakush

Hoje, 18 Junho, Sexta-feira

Tempo Temperatura Precipitação Vento Pressão Humidade
00:00 +15°C° 0 mm 6 m/s 743 mmHg 66%
01:00 +14°C° 0 mm 6 m/s 743 mmHg 66%
02:00 +14°C° 0 mm 5 m/s 744 mmHg 69%
03:00 +13°C° 0 mm 5 m/s 744 mmHg 72%
04:00 +12°C° 0 mm 5 m/s 745 mmHg 74%
05:00 +13°C° 0 mm 5 m/s 745 mmHg 73%
06:00 +14°C° 0 mm 5 m/s 745 mmHg 72%
07:00 +15°C° 0 mm 6 m/s 746 mmHg 70%
08:00 +16°C° 0 mm 6 m/s 746 mmHg 67%
09:00 +16°C° 0 mm 7 m/s 746 mmHg 63%
10:00 +17°C° 0 mm 7 m/s 746 mmHg 59%
11:00 +18°C° 0 mm 7 m/s 746 mmHg 58%
12:00 +18°C° 0 mm 7 m/s 747 mmHg 56%
13:00 +18°C° 0 mm 7 m/s 747 mmHg 55%
14:00 +18°C° 0 mm 7 m/s 747 mmHg 56%
15:00 +17°C° 0 mm 7 m/s 748 mmHg 57%
16:00 +17°C° 0 mm 7 m/s 748 mmHg 58%
17:00 +17°C° 0 mm 6 m/s 748 mmHg 61%
18:00 +16°C° 0 mm 6 m/s 749 mmHg 63%
19:00 +16°C° 0 mm 5 m/s 749 mmHg 65%
20:00 +14°C° 0 mm 5 m/s 749 mmHg 69%
21:00 +13°C° 0 mm 4 m/s 750 mmHg 74%
22:00 +11°C° 0 mm 3 m/s 750 mmHg 79%
23:00 +11°C° 0 mm 3 m/s 750 mmHg 78%

Amanhã, 19 Junho, Sábado

Tempo Temperatura Precipitação Vento Pressão Humidade
00:00 +10°C° 0 mm 3 m/s 750 mmHg 78%
01:00 +10°C° 0 mm 2 m/s 750 mmHg 77%
02:00 +10°C° 0 mm 2 m/s 751 mmHg 77%
03:00 +9°C° 0 mm 2 m/s 751 mmHg 77%
04:00 +9°C° 0 mm 2 m/s 751 mmHg 77%
05:00 +12°C° 0 mm 2 m/s 751 mmHg 73%
06:00 +14°C° 0 mm 2 m/s 752 mmHg 69%
07:00 +15°C° 0 mm 2 m/s 752 mmHg 64%
08:00 +17°C° 0 mm 2 m/s 752 mmHg 59%
09:00 +18°C° 0 mm 3 m/s 752 mmHg 55%
10:00 +19°C° 0 mm 3 m/s 752 mmHg 50%
11:00 +20°C° 0 mm 3 m/s 751 mmHg 50%
12:00 +21°C° 0 mm 4 m/s 751 mmHg 50%
13:00 +22°C° 0 mm 4 m/s 750 mmHg 50%
14:00 +22°C° 0 mm 5 m/s 750 mmHg 51%
15:00 +22°C° 0 mm 5 m/s 750 mmHg 53%
16:00 +22°C° 0 mm 6 m/s 749 mmHg 54%
17:00 +22°C° 0 mm 5 m/s 749 mmHg 59%
18:00 +21°C° 0 mm 5 m/s 749 mmHg 64%
19:00 +21°C° 0 mm 4 m/s 749 mmHg 69%
20:00 +19°C° 0 mm 4 m/s 749 mmHg 73%
21:00 +18°C° 0 mm 4 m/s 748 mmHg 78%
22:00 +17°C° 0 mm 4 m/s 748 mmHg 83%
23:00 +17°C° 0 mm 4 m/s 748 mmHg 83%

Depois de amanhã, 20 Junho, Domingo

Tempo Temperatura Precipitação Vento Pressão Humidade
00:00 +16°C° 0 mm 5 m/s 748 mmHg 83%
01:00 +16°C° 0 mm 5 m/s 748 mmHg 83%
02:00 +16°C° 0 mm 5 m/s 747 mmHg 84%
03:00 +15°C° 0 mm 5 m/s 747 mmHg 85%
04:00 +15°C° 0 mm 5 m/s 747 mmHg 87%
05:00 +17°C° 0 mm 6 m/s 747 mmHg 84%
06:00 +19°C° 0 mm 6 m/s 747 mmHg 82%
07:00 +20°C° 0 mm 6 m/s 747 mmHg 80%
08:00 +22°C° 0 mm 6 m/s 747 mmHg 74%
09:00 +24°C° 0 mm 6 m/s 747 mmHg 69%
10:00 +26°C° 0 mm 6 m/s 747 mmHg 64%
11:00 +27°C° 0.1 mm 7 m/s 747 mmHg 62%
12:00 +28°C° 0.1 mm 7 m/s 747 mmHg 59%
13:00 +29°C° 0.1 mm 7 m/s 747 mmHg 57%
14:00 +28°C° 0.2 mm 7 m/s 747 mmHg 59%
15:00 +28°C° 0.2 mm 7 m/s 747 mmHg 62%
16:00 +28°C° 0.2 mm 7 m/s 747 mmHg 64%
17:00 +27°C° 0.1 mm 6 m/s 747 mmHg 66%
18:00 +26°C° 0.1 mm 6 m/s 747 mmHg 67%
19:00 +25°C° 0.1 mm 5 m/s 747 mmHg 68%
20:00 +22°C° 0 mm 4 m/s 747 mmHg 71%
21:00 +19°C° 0 mm 4 m/s 748 mmHg 74%
22:00 +17°C° 0 mm 3 m/s 748 mmHg 77%
23:00 +16°C° 0 mm 3 m/s 748 mmHg 73%

21 Junho, Segunda-feira

Tempo Temperatura Precipitação Vento Pressão Humidade
00:00 +16°C° 0 mm 2 m/s 748 mmHg 70%
01:00 +15°C° 0 mm 2 m/s 748 mmHg 66%
02:00 +14°C° 0 mm 2 m/s 749 mmHg 66%
03:00 +14°C° 0 mm 2 m/s 749 mmHg 66%
04:00 +13°C° 0 mm 2 m/s 749 mmHg 65%
05:00 +15°C° 0 mm 2 m/s 750 mmHg 64%
06:00 +16°C° 0 mm 3 m/s 750 mmHg 62%
07:00 +17°C° 0 mm 3 m/s 750 mmHg 60%
08:00 +18°C° 0 mm 3 m/s 750 mmHg 54%
09:00 +20°C° 0 mm 3 m/s 750 mmHg 49%
10:00 +21°C° 0 mm 4 m/s 750 mmHg 43%
11:00 +22°C° 0 mm 4 m/s 750 mmHg 42%
12:00 +24°C° 0 mm 3 m/s 750 mmHg 41%
13:00 +25°C° 0 mm 3 m/s 750 mmHg 40%
14:00 +25°C° 0 mm 3 m/s 750 mmHg 42%
15:00 +25°C° 0 mm 3 m/s 750 mmHg 44%
16:00 +25°C° 0 mm 3 m/s 750 mmHg 45%
17:00 +25°C° 0 mm 3 m/s 750 mmHg 51%
18:00 +24°C° 0 mm 2 m/s 749 mmHg 57%
19:00 +24°C° 0 mm 1 m/s 749 mmHg 63%
20:00 +22°C° 0 mm 1 m/s 749 mmHg 66%
21:00 +21°C° 0 mm 1 m/s 749 mmHg 69%
22:00 +19°C° 0 mm 1 m/s 749 mmHg 71%
23:00 +19°C° 0 mm 1 m/s 749 mmHg 72%

22 Junho, Terça-feira

Tempo Temperatura Precipitação Vento Pressão Humidade
00:00 +18°C° 0 mm 2 m/s 748 mmHg 72%
01:00 +18°C° 0 mm 2 m/s 748 mmHg 72%
02:00 +18°C° 0 mm 2 m/s 748 mmHg 74%
03:00 +18°C° 0 mm 3 m/s 748 mmHg 76%
04:00 +18°C° 0 mm 3 m/s 748 mmHg 78%
05:00 +19°C° 0.2 mm 3 m/s 748 mmHg 78%
06:00 +20°C° 0.2 mm 4 m/s 748 mmHg 78%
07:00 +21°C° 0.2 mm 4 m/s 748 mmHg 78%
08:00 +23°C° 0 mm 5 m/s 748 mmHg 73%
09:00 +26°C° 0 mm 5 m/s 748 mmHg 68%
10:00 +28°C° 0 mm 6 m/s 748 mmHg 63%
11:00 +28°C° 0.1 mm 6 m/s 748 mmHg 59%
12:00 +29°C° 0.1 mm 6 m/s 747 mmHg 55%
13:00 +30°C° 0.1 mm 6 m/s 747 mmHg 51%
14:00 +30°C° 0 mm 6 m/s 747 mmHg 51%
15:00 +30°C° 0 mm 6 m/s 747 mmHg 51%
16:00 +30°C° 0 mm 6 m/s 747 mmHg 51%
17:00 +29°C° 0 mm 6 m/s 747 mmHg 57%
18:00 +28°C° 0 mm 6 m/s 746 mmHg 62%
19:00 +27°C° 0 mm 5 m/s 746 mmHg 67%
20:00 +26°C° 0 mm 5 m/s 746 mmHg 71%
21:00 +25°C° 0 mm 5 m/s 746 mmHg 75%
22:00 +23°C° 0 mm 5 m/s 746 mmHg 78%
23:00 +22°C° 0 mm 4 m/s 746 mmHg 82%

23 Junho, Quarta-feira

Tempo Temperatura Precipitação Vento Pressão Humidade
00:00 +21°C° 0 mm 4 m/s 746 mmHg 85%
01:00 +21°C° 0 mm 3 m/s 746 mmHg 88%
02:00 +20°C° 0 mm 3 m/s 746 mmHg 89%
03:00 +19°C° 0 mm 3 m/s 746 mmHg 90%
04:00 +18°C° 0 mm 3 m/s 746 mmHg 90%
05:00 +18°C° 0 mm 4 m/s 747 mmHg 86%
06:00 +19°C° 0 mm 4 m/s 747 mmHg 81%
07:00 +20°C° 0 mm 5 m/s 747 mmHg 77%
08:00 +21°C° 0 mm 5 m/s 748 mmHg 72%
09:00 +21°C° 0 mm 6 m/s 748 mmHg 68%
10:00 +22°C° 0 mm 6 m/s 748 mmHg 63%
11:00 +23°C° 0 mm 6 m/s 748 mmHg 59%
12:00 +23°C° 0 mm 6 m/s 748 mmHg 55%
13:00 +23°C° 0 mm 6 m/s 748 mmHg 51%
14:00 +23°C° 0 mm 6 m/s 748 mmHg 50%
15:00 +23°C° 0 mm 6 m/s 748 mmHg 49%
16:00 +23°C° 0 mm 6 m/s 749 mmHg 47%
17:00 +23°C° 0 mm 5 m/s 749 mmHg 52%
18:00 +22°C° 0 mm 4 m/s 749 mmHg 56%
19:00 +21°C° 0 mm 4 m/s 749 mmHg 60%
20:00 +19°C° 0 mm 3 m/s 749 mmHg 63%
21:00 +18°C° 0 mm 3 m/s 749 mmHg 66%
22:00 +16°C° 0 mm 3 m/s 749 mmHg 68%
23:00 +15°C° 0 mm 2 m/s 749 mmHg 69%
Mostrar mais

Necessitamos do seu Consentimento

A Meteoprog e os seus Fornecedores de Serviços podem armazenar e aceder a dados pessoais como cookies, identificadores do dispositivo ou outras tecnologias semelhantes existentes no seu dispositivo e processar estes dados para personalizar conteúdos e anúncios, assim como funcionalidades nas redes sociais e análise de tráfego.

  • Armazenar e/ou aceder a informações no seu dispositivo

    Os cookies, identificadores do dispositivo ou outras informações podem ser armazenados ou acedidos no seu dispositivo, para os fins acima indicados.

  • Anúncios e conteúdos personalizados, medição de anúncios e conteúdos, dados sobre o público-alvo e desenvolvimento de produtos

    Os anúncios e os conteúdos podem ser personalizados com base num perfil. Podem ser adicionados dados adicionais para uma maior personalização dos anúncios e dos conteúdos. A eficácia dos anúncios e dos conteúdos pode ser medida. Podem ser obtidas informações sobre o público que visualizou os anúncios e os conteúdos. Estes dados podem ser usados para desenvolver ou melhorar sistemas, softwares ou a experiência do utilizador.

Ao clicar em "Eu concordo”, permitirá o uso de cookies, identificadores do dispositivo e web beacons mencionados ou outras tecnologias semelhantes. As configurações do navegador do seu dispositivo podem ser alteradas.

Para certos fins, podem ser invocados interesses legítimos ao invés de consentimento. Pode ler mais informação sobre este assunto na nossa Política de Privacidade e Cookies.